Weather History for KTRI - February, 2013

Change the Weather History Date:

Thursday, February 7, 2013

  Actual Average Record
Temperature  
Mean Temperature 43 °F 37 °F  
Max Temperature 55 °F 48 °F 64 °F (1938)
Min Temperature 30 °F 27 °F 0 °F (1978)
Degree Days  
Heating Degree Days 22 28  
Month to date heating degree days 217 198  
Since 1 July heating degree days 2655 2852  
Cooling Degree Days 0 0  
Month to date cooling degree days 0 0  
Year to date cooling degree days 0 0  
Moisture  
Dew Point 32 °F    
Average Humidity 64    
Maximum Humidity 85    
Minimum Humidity 43    
Precipitation  
Precipitation T in 0.12 in 0.81 in (1965)
Month to date precipitation 0.32 0.87  
Year to date precipitation 10.31 4.24  
Snow  
Snow 0.00 in 0.10 in - ()
Month to date snowfall 3.1 0.9  
Since 1 July snowfall 7.2 8.3  
Snow Depth 0.00 in    
Sea Level Pressure  
Sea Level Pressure 30.09 in    
Wind  
Wind Speed 4 mph (ESE)    
Max Wind Speed 13 mph    
Max Gust Speed 18 mph    
Visibility 10 miles    
Events Rain    
T = Trace of Precipitation, MM = Missing Value Source: NWS Daily Summary

Daily Weather History Graph

Daily Weather History Graph

Search for Another Location

Airport or City:

Trip Planner

Search our weather history database for the weather conditions in past years. The results will help you decide how hot, cold, wet, or windy it might be!

Date:

Astronomy

Feb. 07, 2013 Rise Set
Actual Time 7:25 AM EST 6:02 PM EST
Civil Twilight 6:58 AM EST 6:29 PM EST
Nautical Twilight 6:28 AM EST 6:59 PM EST
Astronomical Twilight 5:58 AM EST 7:29 PM EST
Moon 5:01 AM EST (2/7) 3:27 PM EST (2/7)
Length of Visible Light 11h 30m
Length of Day
10h 36m
Waning Crescent, 9% of the Moon is Illuminated
Feb 7
Waning Crescent
Feb 10
New
Feb 17
First Quarter
Feb 25
Full
Mar 4
Last Quarter

Hourly Weather History & Observations

Time (EST) Temp. Windchill Dew Point Humidity Pressure Visibility Wind Dir Wind Speed Gust Speed Precip Events Conditions
12:53 AM 32.0 °F - 27.0 °F 82% 30.17 in 10.0 mi Calm Calm - N/A   Scattered Clouds
1:53 AM 32.0 °F - 27.0 °F 82% 30.16 in 10.0 mi Calm Calm - N/A   Scattered Clouds
2:53 AM 33.1 °F - 27.0 °F 78% 30.15 in 10.0 mi Calm Calm - N/A   Scattered Clouds
3:53 AM 33.1 °F - 27.0 °F 78% 30.16 in 10.0 mi Calm Calm - N/A   Scattered Clouds
4:53 AM 30.9 °F - 26.1 °F 82% 30.19 in 10.0 mi Calm Calm - N/A   Scattered Clouds
5:53 AM 30.9 °F - 27.0 °F 85% 30.18 in 10.0 mi Calm Calm - N/A   Scattered Clouds
6:53 AM 33.1 °F - 27.0 °F 78% 30.18 in 10.0 mi Calm Calm - N/A   Mostly Cloudy
7:53 AM 35.1 °F - 28.0 °F 76% 30.19 in 10.0 mi Calm Calm - N/A   Overcast
8:53 AM 37.9 °F 35.5 °F 30.0 °F 73% 30.18 in 10.0 mi ESE 3.5 mph - N/A   Overcast
9:53 AM 42.1 °F - 30.0 °F 62% 30.17 in 10.0 mi Calm Calm - N/A   Overcast
10:53 AM 46.0 °F 43.9 °F 32.0 °F 58% 30.15 in 10.0 mi ENE 4.6 mph - N/A   Overcast
11:53 AM 50.0 °F - 32.0 °F 50% 30.12 in 10.0 mi NE 5.8 mph - N/A   Overcast
12:53 PM 53.1 °F - 33.1 °F 47% 30.07 in 10.0 mi ENE 8.1 mph - N/A   Overcast
1:53 PM 55.0 °F - 33.1 °F 43% 30.03 in 10.0 mi ENE 6.9 mph - N/A   Overcast
2:53 PM 55.0 °F - 35.1 °F 47% 30.02 in 10.0 mi ESE 6.9 mph - N/A   Overcast
3:53 PM 53.1 °F - 35.1 °F 50% 30.03 in 10.0 mi SE 10.4 mph - N/A   Overcast
4:53 PM 51.1 °F - 36.0 °F 56% 30.02 in 10.0 mi ESE 8.1 mph - N/A   Overcast
5:53 PM 48.9 °F - 37.9 °F 66% 30.02 in 10.0 mi SE 9.2 mph - N/A   Overcast
6:53 PM 48.0 °F - 37.9 °F 68% 30.02 in 10.0 mi SE 6.9 mph - 0.00 in Rain Light Rain
7:53 PM 46.9 °F - 37.9 °F 71% 30.00 in 10.0 mi SE 4.6 mph - 0.00 in   Overcast
8:53 PM 46.9 °F - 37.0 °F 68% 29.99 in 10.0 mi SE 4.6 mph - N/A   Overcast
9:53 PM 46.9 °F - 37.0 °F 68% 29.98 in 10.0 mi SE 6.9 mph - N/A   Overcast
10:53 PM 46.9 °F - 37.0 °F 68% 29.94 in 10.0 mi SE 5.8 mph - N/A   Mostly Cloudy
11:53 PM 45.0 °F - 37.0 °F 74% 29.93 in 10.0 mi Calm Calm - N/A   Mostly Cloudy